Flag for Poland Weather past 2 weeks in Koszalin, Poland

Now
30 °F

Clear.


Feels Like: 25 °F
Forecast: 37 / 43 °F
Wind: 5 mph from Southeast

Location: Koszalin

Current Time: Mar 1, 2015 at 5:57:51 AM

Latest Report: Mar 1, 2015 at 5:00 AM


Visibility: 8 mi

Pressure: 29.86 "Hg

Humidity: 87%

Dew point: 27 °F

Location of KoszalinLocation

Historic Weather in Koszalin — Graph

°F

Koszalin temperature yesterday

Maximum temperature yesterday: 38 °F (at 5:00 AM)
Minimum temperature yesterday: 31 °F (at 10:00 PM)
Average temperature yesterday: 35 °F

Past Weeks' High & Low Weather Summary

 TemperatureHumidityPressure
High52 °F (Feb 21, 2:00 PM)97% (Feb 28, 10:00 AM)30.64 "Hg (Feb 28, 10:00 AM)
Low26 °F (Feb 17, 7:00 AM)41% (Feb 21, 1:00 PM)29.32 "Hg (Feb 21, 2:00 PM)
Average37 °F76%30.03 "Hg
* Reported Feb 14 3:00 AM — Mar 1 3:00 AM, Koszalin, Weather by CustomWeather, © 2015

Note: Actual official high and low records may vary slightly from our data, if they occured in-between our weather recording intervals... More about our weather records

Advertising

Koszalin weather history for previous 24 hours

 ConditionsComfort  
Time TempWeatherWind HumidityBarometerVisibility
3:00 AM
Sun, Mar 1
30 °FPassing clouds.3 mph90%29.91 "Hg7 mi
2:00 AM30 °FClear.3 mph92%29.94 "Hg6 mi
1:00 AM30 °FFog.3 mph96%29.97 "Hg4 mi
12:00 AM31 °FFog.2 mph97%29.98 "Hg3 mi
11:00 PM
Sat, Feb 28
31 °FFog.2 mph97%30.01 "Hg2 mi
10:00 PM31 °FFog.2 mph97%30.02 "Hg2 mi
9:00 PM31 °FFog.3 mph96%30.03 "Hg0 mi
8:00 PM33 °FFog.2 mph93%30.05 "Hg2 mi
7:00 PM35 °FFog.2 mph92%30.06 "Hg3 mi
6:00 PM36 °FPassing clouds.1 mph89%30.06 "Hg6 mi
5:00 PM37 °FOvercast.1 mph93%30.05 "Hg7 mi
4:00 PM37 °FFog.3 mph97%30.06 "Hg5 mi
3:00 PM36 °FFog.2 mph97%30.05 "Hg1 mi
2:00 PM35 °FFog.3 mph97%30.04 "Hg1 mi
1:00 PM35 °FFog.3 mph97%30.05 "Hg1 mi
12:00 PM35 °FFog.3 mph97%30.05 "Hg1 mi
11:00 AM34 °FFog.3 mph97%30.05 "Hg1 mi
10:00 AM34 °FFog.2 mph97%30.04 "Hg1 mi
9:00 AM34 °FFog.2 mph96%30.03 "Hg0 mi
8:00 AM35 °FFog.2 mph96%30.01 "Hg0 mi
7:00 AM36 °FFog.1 mph95%30.00 "Hg0 mi
6:00 AM38 °FFog.2 mph94%29.98 "Hg1 mi
5:00 AM38 °FFog.2 mph94%29.98 "Hg1 mi
Weather by CustomWeather, © 2015

See weather overviewHow to use our weather pages